• En España
  • Lista de países
  • Para 7 días
  • Temperatura del agua
  • Mapa Satelital
  • El tiempo en el mapa
  • Informadores
  • user-avatar
    Iniciar sesión

    Tiempo cada hora Tavira

    Hoy, 22 Julio, Domingo

    Tiempo Temperatura Precipitaciones Viento Presión Humedad
    00:00 +22°C° 0 mm 5 mps 758 mmHg 60%
    01:00 +21°C° 0 mm 5 mps 758 mmHg 67%
    02:00 +20°C° 0 mm 5 mps 758 mmHg 73%
    03:00 +20°C° 0 mm 5 mps 758 mmHg 77%
    04:00 +19°C° 0 mm 5 mps 758 mmHg 81%
    05:00 +19°C° 0 mm 5 mps 758 mmHg 84%
    06:00 +21°C° 0 mm 4 mps 758 mmHg 74%
    07:00 +23°C° 0 mm 4 mps 758 mmHg 64%
    08:00 +26°C° 0 mm 3 mps 758 mmHg 55%
    09:00 +28°C° 0 mm 3 mps 758 mmHg 47%
    10:00 +30°C° 0 mm 3 mps 758 mmHg 39%
    11:00 +34°C° 0 mm 3 mps 758 mmHg 31%
    12:00 +35°C° 0 mm 4 mps 758 mmHg 29%
    13:00 +36°C° 0 mm 4 mps 758 mmHg 27%
    14:00 +36°C° 0 mm 5 mps 758 mmHg 26%
    15:00 +35°C° 0 mm 5 mps 758 mmHg 30%
    16:00 +35°C° 0 mm 5 mps 757 mmHg 34%
    17:00 +34°C° 0 mm 6 mps 757 mmHg 37%
    18:00 +30°C° 0 mm 5 mps 758 mmHg 46%
    19:00 +28°C° 0 mm 5 mps 758 mmHg 55%
    20:00 +25°C° 0 mm 5 mps 759 mmHg 64%
    21:00 +23°C° 0 mm 4 mps 759 mmHg 67%
    22:00 +22°C° 0 mm 4 mps 759 mmHg 70%
    23:00 +22°C° 0 mm 4 mps 759 mmHg 73%

    Mañana, 23 Julio, Lunes

    Tiempo Temperatura Precipitaciones Viento Presión Humedad
    00:00 +21°C° 0 mm 3 mps 759 mmHg 74%
    01:00 +21°C° 0 mm 3 mps 759 mmHg 76%
    02:00 +20°C° 0 mm 3 mps 759 mmHg 78%
    03:00 +20°C° 0 mm 2 mps 759 mmHg 79%
    04:00 +20°C° 0 mm 2 mps 759 mmHg 80%
    05:00 +19°C° 0 mm 2 mps 759 mmHg 81%
    06:00 +23°C° 0 mm 2 mps 759 mmHg 71%
    07:00 +25°C° 0 mm 2 mps 759 mmHg 61%
    08:00 +27°C° 0 mm 1 mps 759 mmHg 52%
    09:00 +29°C° 0 mm 2 mps 759 mmHg 45%
    10:00 +31°C° 0 mm 2 mps 759 mmHg 37%
    11:00 +34°C° 0 mm 3 mps 759 mmHg 30%
    12:00 +35°C° 0 mm 3 mps 759 mmHg 29%
    13:00 +36°C° 0 mm 4 mps 759 mmHg 27%
    14:00 +37°C° 0 mm 5 mps 759 mmHg 25%
    15:00 +35°C° 0 mm 5 mps 759 mmHg 29%
    16:00 +34°C° 0 mm 6 mps 758 mmHg 33%
    17:00 +33°C° 0 mm 6 mps 758 mmHg 37%
    18:00 +29°C° 0 mm 6 mps 759 mmHg 45%
    19:00 +26°C° 0 mm 6 mps 759 mmHg 53%
    20:00 +22°C° 0 mm 6 mps 760 mmHg 61%
    21:00 +22°C° 0 mm 5 mps 760 mmHg 67%
    22:00 +21°C° 0 mm 5 mps 760 mmHg 73%
    23:00 +20°C° 0 mm 5 mps 760 mmHg 79%

    Pasado mañana, 24 Julio, Martes

    Tiempo Temperatura Precipitaciones Viento Presión Humedad
    00:00 +20°C° 0 mm 5 mps 760 mmHg 81%
    01:00 +19°C° 0 mm 5 mps 760 mmHg 84%
    02:00 +19°C° 0 mm 4 mps 760 mmHg 87%
    03:00 +19°C° 0 mm 4 mps 760 mmHg 87%
    04:00 +19°C° 0 mm 4 mps 760 mmHg 87%
    05:00 +19°C° 0 mm 4 mps 760 mmHg 88%
    06:00 +20°C° 0 mm 4 mps 760 mmHg 78%
    07:00 +22°C° 0 mm 4 mps 760 mmHg 68%
    08:00 +25°C° 0 mm 4 mps 760 mmHg 58%
    09:00 +27°C° 0 mm 4 mps 760 mmHg 50%
    10:00 +29°C° 0 mm 4 mps 760 mmHg 42%
    11:00 +31°C° 0 mm 3 mps 760 mmHg 34%
    12:00 +33°C° 0 mm 4 mps 760 mmHg 32%
    13:00 +34°C° 0 mm 5 mps 759 mmHg 30%
    14:00 +35°C° 0 mm 6 mps 759 mmHg 28%
    15:00 +34°C° 0 mm 6 mps 759 mmHg 32%
    16:00 +33°C° 0 mm 6 mps 758 mmHg 37%
    17:00 +32°C° 0 mm 7 mps 758 mmHg 41%
    18:00 +29°C° 0 mm 6 mps 759 mmHg 50%
    19:00 +27°C° 0 mm 6 mps 759 mmHg 59%
    20:00 +23°C° 0 mm 6 mps 759 mmHg 68%
    21:00 +23°C° 0 mm 6 mps 760 mmHg 71%
    22:00 +22°C° 0 mm 6 mps 760 mmHg 75%
    23:00 +21°C° 0 mm 5 mps 760 mmHg 79%

    25 Julio, Miércoles

    Tiempo Temperatura Precipitaciones Viento Presión Humedad
    00:00 +21°C° 0 mm 5 mps 760 mmHg 81%
    01:00 +20°C° 0 mm 5 mps 759 mmHg 84%
    02:00 +20°C° 0 mm 5 mps 759 mmHg 86%
    03:00 +19°C° 0 mm 4 mps 759 mmHg 86%
    04:00 +19°C° 0 mm 4 mps 759 mmHg 87%
    05:00 +19°C° 0 mm 4 mps 759 mmHg 87%
    06:00 +21°C° 0 mm 4 mps 760 mmHg 79%
    07:00 +22°C° 0 mm 4 mps 760 mmHg 70%
    08:00 +25°C° 0 mm 4 mps 760 mmHg 62%
    09:00 +27°C° 0 mm 4 mps 760 mmHg 54%
    10:00 +29°C° 0 mm 4 mps 760 mmHg 46%
    11:00 +32°C° 0 mm 4 mps 760 mmHg 37%
    12:00 +33°C° 0 mm 4 mps 760 mmHg 35%
    13:00 +34°C° 0 mm 5 mps 760 mmHg 32%
    14:00 +35°C° 0 mm 6 mps 759 mmHg 29%
    15:00 +34°C° 0 mm 6 mps 759 mmHg 33%
    16:00 +33°C° 0 mm 6 mps 759 mmHg 36%
    17:00 +32°C° 0 mm 7 mps 759 mmHg 40%
    18:00 +29°C° 0 mm 7 mps 760 mmHg 45%
    19:00 +28°C° 0 mm 6 mps 760 mmHg 50%
    20:00 +26°C° 0 mm 6 mps 760 mmHg 55%
    21:00 +24°C° 0 mm 6 mps 760 mmHg 58%
    22:00 +23°C° 0 mm 6 mps 760 mmHg 60%
    23:00 +22°C° 0 mm 6 mps 760 mmHg 63%

    26 Julio, Jueves

    Tiempo Temperatura Precipitaciones Viento Presión Humedad
    00:00 +21°C° 0 mm 6 mps 760 mmHg 68%
    01:00 +20°C° 0 mm 5 mps 760 mmHg 73%
    02:00 +19°C° 0 mm 5 mps 759 mmHg 78%
    03:00 +19°C° 0 mm 5 mps 759 mmHg 81%
    04:00 +19°C° 0 mm 5 mps 760 mmHg 84%
    05:00 +17°C° 0 mm 5 mps 760 mmHg 87%
    06:00 +20°C° 0 mm 4 mps 760 mmHg 79%
    07:00 +22°C° 0 mm 4 mps 760 mmHg 70%
    08:00 +24°C° 0 mm 3 mps 760 mmHg 61%
    09:00 +27°C° 0 mm 3 mps 760 mmHg 51%
    10:00 +30°C° 0 mm 3 mps 759 mmHg 41%
    11:00 +33°C° 0 mm 3 mps 759 mmHg 31%
    12:00 +34°C° 0 mm 4 mps 759 mmHg 28%
    13:00 +36°C° 0 mm 4 mps 758 mmHg 25%
    14:00 +37°C° 0 mm 5 mps 758 mmHg 23%
    15:00 +36°C° 0 mm 5 mps 758 mmHg 26%
    16:00 +35°C° 0 mm 5 mps 758 mmHg 29%
    17:00 +35°C° 0 mm 6 mps 757 mmHg 32%
    18:00 +32°C° 0 mm 5 mps 758 mmHg 38%
    19:00 +29°C° 0 mm 5 mps 758 mmHg 45%
    20:00 +27°C° 0 mm 5 mps 758 mmHg 51%
    21:00 +26°C° 0 mm 5 mps 758 mmHg 51%
    22:00 +25°C° 0 mm 5 mps 758 mmHg 50%
    23:00 +25°C° 0 mm 4 mps 758 mmHg 49%

    27 Julio, Viernes

    Tiempo Temperatura Precipitaciones Viento Presión Humedad
    00:00 +23°C° 0 mm 4 mps 758 mmHg 51%
    01:00 +22°C° 0 mm 4 mps 758 mmHg 52%
    02:00 +21°C° 0 mm 4 mps 758 mmHg 54%
    03:00 +21°C° 0 mm 4 mps 758 mmHg 57%
    04:00 +20°C° 0 mm 4 mps 758 mmHg 61%
    05:00 +20°C° 0 mm 4 mps 758 mmHg 64%
    06:00 +22°C° 0 mm 4 mps 758 mmHg 59%
    07:00 +25°C° 0 mm 4 mps 758 mmHg 54%
    08:00 +27°C° 0 mm 4 mps 758 mmHg 49%
    09:00 +30°C° 0 mm 3 mps 758 mmHg 42%
    10:00 +33°C° 0 mm 3 mps 758 mmHg 35%
    11:00 +36°C° 0 mm 3 mps 758 mmHg 28%
    12:00 +37°C° 0 mm 4 mps 758 mmHg 25%
    13:00 +38°C° 0 mm 4 mps 758 mmHg 23%
    14:00 +40°C° 0 mm 5 mps 757 mmHg 21%
    15:00 +39°C° 0 mm 6 mps 757 mmHg 23%
    16:00 +38°C° 0 mm 6 mps 757 mmHg 26%
    17:00 +36°C° 0 mm 7 mps 757 mmHg 29%
    18:00 +34°C° 0 mm 7 mps 758 mmHg 34%
    19:00 +31°C° 0 mm 8 mps 758 mmHg 40%
    20:00 +28°C° 0 mm 8 mps 759 mmHg 46%
    21:00 +26°C° 0 mm 8 mps 759 mmHg 50%
    22:00 +24°C° 0 mm 7 mps 759 mmHg 54%
    23:00 +22°C° 0 mm 7 mps 759 mmHg 59%
    Mostrar más